Location: Aragoneses
(41.0275°N, 4.3847°W)
Time: 19:22:07
(UTC+00:00)

SPOT 1/Viking Rocket - Pass Details

Date: 23 March 2026
Orbit: 773 x 789 km, 98.2° (Epoch: 18 April)

Event Time Altitude Azimuth Distance (km) Brightness Sun altitude
Rises 19:03:45 0° 191° (S) 3,254 6.8 -6.6°
Reaches altitude 10° 19:06:17 10° 201° (SSW) 2,334 6.2 -7.1°
Maximum altitude 19:10:51 32° 264° (W) 1,329 5.6 -8.0°
Drops below altitude 10° 19:15:29 10° 327° (NNW) 2,356 6.7 -8.8°
Sets 19:18:04 0° 337° (NNW) 3,291 7.3 -9.3°
